Theta_e
312 311 311 311 310 309 316 321 313 329 327 313 314 311 314 306 312 314 313 313 313 312 311 310 309 309 311 314 314 309 313 309 305 307 312 313 312 310 309 304 304 307 306 308
313 312 312 311 309 309 315 314 314 327 325 308 311 315 313 313 311 312 311 311 314 315 311 309 310 311 315 313 311 311 312 307 302 305 309 311 308 310 311 310 309 306 303 306
315 315 313 312 311 310 315 314 309 319 321 318 313 312 313 312 315 313 314 313 315 312 311 314 310 311 313 313 312 321 315 308 306 302 307 310 306 307 309 309 305 306 307 311
315 315 315 313 312 310 314 314 311 317 310 314 315 315 312 311 311 316 315 313 313 313 309 310 310 311 313 312 315 311 310 305 308 308 309 309 308 308 307 307 308 305 308 309
316 316 316 315 312 309 314 308 310 318 314 313 312 309 310 310 312 313 312 312 313 315 311 312 310 313 313 311 313 310 311 305 307 305 308 308 306 308 308 308 309 309 309 309
316 316 316 315 313 309 312 316 317 313 305 306 307 309 310 309 313 315 316 314 312 311 312 317 318 318 316 316 313 311 311 308 306 302 307 307 303 307 308 308 310 309 306 311
316 316 316 315 314 309 315 316 316 310 305 307 306 307 309 310 312 311 314 314 314 317 322 321 320 317 316 316 314 314 311 311 308 303 306 298 308 314 313 309 310 312 313 314
316 316 317 317 315 312 313 316 313 310 304 307 307 307 309 310 312 312 312 314 316 321 317 312 309 309 310 312 313 313 313 309 306 302 302 306 309 312 311 309 309 313 313 316
315 316 317 317 316 312 314 312 316 312 307 305 308 307 309 307 307 308 312 317 318 316 312 307 302 300 304 303 308 315 313 312 306 304 300 298 309 314 316 315 305 315 315 317
314 315 317 317 317 312 312 311 315 311 304 309 310 308 307 310 310 307 309 310 311 316 309 302 302 302 307 302 302 306 307 308 303 303 300 305 313 315 316 305 307 316 317 319
314 315 315 316 317 315 311 309 314 308 305 309 311 312 309 309 310 306 311 308 310 308 304 304 304 302 305 305 309 308 303 302 302 304 300 298 315 313 309 319 324 321 323 323
314 314 315 315 316 316 313 307 313 315 307 309 315 316 317 314 312 309 314 311 312 311 308 309 307 305 306 305 300 312 302 307 304 306 304 316 317 316 324 326 323 325 326 327
314 314 314 315 315 315 313 309 312 311 305 304 308 308 315 318 318 319 309 312 314 314 314 308 308 305 308 300 305 307 309 313 306 306 312 314 317 321 325 326 323 325 326 328
313 314 314 314 315 314 314 309 314 310 306 298 304 315 312 318 317 316 316 314 315 315 317 309 303 304 311 306 306 308 309 311 308 308 313 314 316 317 319 322 324 325 326 328
313 313 313 313 314 313 314 314 314 314 305 298 301 311 315 315 313 315 314 312 310 311 310 305 304 308 304 307 309 307 312 310 307 308 311 311 313 318 318 320 323 325 331 333
312 312 312 312 313 314 316 306 315 314 311 301 295 310 310 313 313 311 311 314 315 314 311 306 308 312 310 304 303 312 313 315 314 310 314 315 319 319 324 323 325 330 333 334
311 311 311 311 312 316 314 309 314 313 313 301 297 300 311 312 312 313 312 315 314 314 309 308 307 309 308 305 300 309 312 311 311 313 316 314 317 316 323 325 326 328 332 333
311 310 310 311 311 312 312 315 313 315 308 305 296 300 303 314 307 306 314 310 312 312 309 309 306 309 309 299 309 310 312 315 312 313 317 316 318 320 320 323 327 328 328 326
310 310 311 315 313 314 314 315 314 319 308 299 299 295 294 309 307 307 306 307 299 308 304 304 308 304 302 306 309 311 313 312 312 316 316 316 316 318 321 323 321 321 324 326
309 313 313 308 314 316 315 311 305 304 305 303 297 303 295 302 302 301 301 303 298 295 301 308 303 303 310 309 310 313 314 315 314 311 312 314 315 315 322 321 321 320 320 321
316 312 310 315 314 313 308 303 300 301 297 302 304 306 300 305 296 298 303 297 298 292 297 298 295 296 306 312 312 313 316 314 314 315 316 316 318 315 320 317 315 317 317 317
310 309 314 317 309 305 302 303 306 303 300 307 305 308 308 305 306 300 300 296 296 291 302 296 293 305 310 311 311 312 311 313 312 315 316 318 317 316 318 314 317 318 319 322
314 311 306 307 309 295 298 295 301 300 306 309 307 304 310 305 305 301 300 295 294 302 294 293 298 305 310 309 312 313 313 313 314 314 317 317 319 317 317 319 320 320 319 320
307 307 294 302 299 300 300 301 302 305 306 306 306 306 308 307 301 303 296 299 299 291 290 291 299 303 308 312 314 313 314 315 314 315 318 317 320 318 321 318 319 318 317 319
306 309 295 298 304 305 306 306 306 307 308 306 305 308 309 304 300 303 302 296 293 294 290 298 302 308 311 311 314 315 315 316 314 317 315 316 318 317 316 317 318 318 318 319
312 309 304 304 303 304 304 304 304 308 307 308 307 303 302 300 302 296 295 294 291 295 300 303 306 308 309 311 313 316 316 317 318 315 314 317 315 316 318 318 318 319 319 319
306 303 310 306 305 302 305 306 306 309 306 299 301 296 297 305 296 295 300 297 301 303 303 305 308 308 310 312 313 316 317 318 319 320 320 318 318 319 319 318 320 320 320 321
Wind_Speed
18 20 21 20 22 31 12 7 7 6 4 9 9 14 18 4 11 10 15 10 18 16 15 18 20 21 16 14 17 19 18 11 14 15 14 19 19 18 21 14 15 13 13 3
15 15 16 15 17 17 9 7 9 7 7 10 12 15 16 12 13 16 12 16 13 17 17 17 17 19 16 12 13 15 16 11 13 14 14 10 13 16 16 20 18 16 14 10
14 14 14 13 13 13 9 7 6 7 8 11 16 16 15 14 13 15 16 15 14 16 17 17 16 16 18 10 14 7 12 18 15 14 15 15 23 17 19 19 15 14 15 10
14 14 12 12 12 13 8 6 6 6 8 5 7 11 13 16 14 16 11 16 16 17 17 19 20 18 16 14 9 10 15 18 19 20 20 17 11 17 21 22 17 20 14 16
16 16 14 9 11 17 7 7 7 6 11 14 14 14 16 16 16 19 15 16 16 18 19 20 18 20 19 20 19 16 20 19 20 22 23 20 22 19 15 17 20 19 18 19
15 15 15 12 8 8 6 5 8 6 8 13 13 13 16 17 15 13 18 19 15 14 11 13 15 17 14 17 16 19 20 17 19 21 21 22 26 20 20 19 19 16 18 11
16 14 13 11 8 8 9 8 9 9 12 13 13 15 14 14 13 15 17 10 11 11 10 13 16 17 17 19 17 15 14 17 16 16 20 30 17 20 20 22 21 17 14 9
17 17 16 12 8 12 9 8 8 9 12 14 16 15 12 10 15 13 15 13 7 13 14 12 17 16 21 25 23 20 19 17 16 17 19 20 19 17 22 18 19 19 16 14
17 17 17 15 10 11 9 7 7 4 9 11 14 13 11 11 9 13 14 18 7 13 11 12 19 17 18 20 25 23 23 21 17 17 24 28 18 19 10 12 18 15 14 12
17 17 17 17 12 9 7 4 6 3 7 14 10 10 8 7 12 11 6 5 6 10 11 14 17 18 20 18 12 19 16 20 19 19 21 21 15 14 16 23 10 16 19 11
16 17 17 18 15 7 8 3 6 6 5 13 12 13 14 12 9 8 6 6 10 9 10 12 15 15 18 20 20 23 9 8 15 18 22 24 21 7 14 4 8 0 8 12
17 17 16 16 14 2 11 2 4 3 4 9 14 16 19 18 9 5 6 8 9 1 4 4 7 12 13 14 11 20 11 15 15 19 8 15 6 6 11 11 4 6 6 7
17 17 17 15 12 5 12 2 2 1 3 7 14 15 19 18 16 15 6 7 5 4 2 3 4 8 10 6 16 16 16 12 6 10 20 17 12 3 4 5 6 3 5 10
16 16 16 14 11 4 13 2 2 0 2 4 6 9 10 11 14 16 14 14 7 7 3 4 3 5 8 10 10 16 8 4 3 4 23 20 24 15 8 3 5 3 4 5
16 14 13 11 8 2 5 1 2 1 1 3 6 18 16 13 10 14 15 12 11 9 5 4 5 7 7 9 13 14 13 13 8 1 5 3 24 21 17 9 8 7 9 9
16 14 12 10 5 6 5 3 5 4 3 3 4 7 11 11 8 14 14 10 6 5 5 5 6 9 5 5 12 15 15 10 4 3 15 6 17 24 14 14 8 8 12 17
15 13 12 9 8 8 4 4 3 5 3 2 5 6 1 6 9 8 6 9 4 6 4 7 11 7 5 9 12 11 11 5 4 12 20 17 13 14 7 14 13 13 15 18
14 13 11 7 7 8 4 4 6 5 2 2 4 6 4 4 2 3 4 3 3 5 4 4 7 6 5 5 15 19 19 15 8 15 23 15 17 15 9 3 14 11 17 19
15 12 6 5 5 3 3 8 5 3 3 2 3 3 4 6 2 2 1 0 2 2 4 5 4 6 8 10 14 14 13 8 9 15 13 14 18 14 13 14 15 15 15 16
14 6 5 4 3 12 8 2 3 3 3 3 4 2 4 0 1 2 1 2 2 3 3 2 5 11 16 17 12 8 5 7 12 11 13 14 19 9 17 19 16 12 12 15
6 3 2 5 8 4 4 4 4 4 3 5 5 7 3 4 4 2 3 1 1 3 2 3 2 4 7 13 14 9 9 9 15 11 8 13 11 6 18 18 15 16 15 12
6 6 5 2 3 4 6 5 5 6 4 4 5 2 3 2 2 3 3 3 3 4 3 2 3 2 5 4 4 3 4 8 1 6 5 13 6 15 12 16 13 13 14 13
3 3 4 5 5 3 6 4 2 3 3 3 7 4 2 2 4 4 3 4 2 3 2 3 1 5 7 9 8 7 9 12 10 3 7 10 13 5 13 17 14 14 13 13
5 5 4 5 2 4 4 8 8 7 7 7 8 3 3 4 4 4 5 4 4 2 2 2 4 7 10 11 10 5 7 7 8 9 8 0 10 9 19 16 13 13 13 13
5 4 3 2 5 6 4 5 6 5 8 8 8 3 2 4 4 3 3 5 2 4 1 2 6 10 10 11 10 7 2 5 6 13 11 4 5 10 13 13 12 11 11 11
4 4 6 6 7 3 5 6 7 8 8 7 5 4 4 3 3 2 4 4 3 3 4 6 7 6 7 8 9 5 1 2 6 17 15 8 8 9 10 10 10 11 10 10
5 5 3 4 3 5 5 4 5 6 9 0 5 4 3 4 2 1 4 4 1 3 5 5 7 6 6 8 8 3 3 5 6 8 11 12 11 11 10 10 9 9 8 8
Wind_Direction
347 346 346 346 343 335 325 290 274 111 206 233 233 244 251 306 281 219 259 272 281 262 244 259 211 240 234 186 232 203 220 230 240 206 223 220 248 218 226 242 231 275 286 313
332 336 341 342 343 358 316 299 289 141 244 252 239 241 251 270 263 263 237 243 243 257 261 256 252 247 242 161 228 217 213 227 246 238 217 187 240 239 255 230 244 251 245 241
329 323 319 331 339 343 309 282 290 187 198 262 280 288 288 256 214 265 276 268 267 258 253 256 248 246 241 173 225 41 258 236 235 246 221 217 202 224 242 245 249 244 235 222
330 332 325 318 326 328 293 247 289 26 293 255 294 281 278 278 275 239 240 266 250 263 252 251 247 245 262 181 189 230 234 243 244 254 268 275 263 217 214 237 242 253 253 245
337 334 334 323 325 323 259 298 321 343 280 282 280 266 262 268 264 266 268 233 259 268 246 263 262 254 231 251 201 220 234 235 248 254 258 257 253 253 235 243 228 240 254 263
330 330 328 331 314 324 289 292 275 271 281 272 265 261 267 269 258 265 276 281 273 275 313 333 319 310 320 297 269 213 229 238 236 245 243 248 250 240 240 244 247 225 244 244
337 336 327 317 297 257 297 301 311 276 266 264 269 274 272 272 279 288 283 332 279 283 341 311 276 270 271 268 270 277 262 241 251 250 245 242 252 255 237 236 243 228 237 234
341 338 333 318 289 234 267 279 290 277 270 271 279 280 280 294 285 273 277 268 287 321 304 284 260 249 254 247 244 243 252 256 252 246 249 260 248 249 243 236 237 233 229 225
336 336 335 327 294 230 252 267 265 270 283 260 294 289 275 268 269 274 280 258 267 288 258 267 259 249 253 245 243 233 236 238 248 245 252 249 253 242 219 241 251 243 236 204
330 331 335 336 325 211 207 261 247 272 264 280 289 280 298 321 299 283 256 290 272 250 251 247 243 248 250 232 250 251 236 230 232 231 247 257 267 272 294 212 239 225 218 197
325 327 328 335 336 210 182 234 260 225 254 277 290 286 272 275 245 269 272 289 236 216 236 260 246 250 248 237 231 248 190 266 259 241 241 239 250 318 259 36 51 157 165 186
323 327 329 329 338 292 182 220 239 249 246 303 322 299 289 295 283 292 300 291 300 343 296 266 281 262 266 267 259 261 270 194 249 277 268 281 271 288 47 349 125 147 178 159
321 326 333 330 332 315 181 204 182 157 284 276 260 254 253 251 242 243 239 244 263 213 135 270 264 257 284 299 280 249 194 228 270 345 246 256 281 115 140 283 287 208 221 190
320 324 333 329 328 304 186 192 164 176 299 276 287 297 326 295 256 239 249 256 245 267 207 270 286 290 334 289 298 299 254 358 165 251 276 289 278 238 241 233 277 231 215 171
315 321 329 325 335 110 171 217 214 210 268 310 304 300 279 262 245 267 250 225 248 247 231 229 235 250 240 271 292 271 281 261 241 237 287 227 270 235 237 227 216 228 120 121
309 313 317 309 293 209 174 223 195 192 175 276 290 296 276 239 240 227 235 243 282 253 237 226 233 235 247 254 253 253 261 256 221 251 234 240 307 294 178 183 176 142 143 129
302 303 304 285 257 261 287 5 67 159 135 257 284 270 303 262 227 219 234 254 217 235 230 233 246 226 192 239 245 264 286 123 302 312 288 300 167 246 194 162 171 131 145 139
301 304 302 262 250 271 245 159 152 156 212 228 271 281 285 22 348 326 335 268 229 220 249 284 245 249 229 255 268 234 255 217 213 248 257 274 278 276 222 134 125 164 167 159
298 308 280 217 223 218 87 113 151 194 254 266 243 301 307 357 285 220 198 24 259 349 260 234 234 222 222 216 244 267 271 302 298 276 248 271 255 250 188 180 143 162 170 156
297 257 211 197 61 115 132 153 188 208 185 213 244 212 246 284 274 294 291 213 223 242 231 282 238 248 244 239 248 242 272 301 279 274 254 253 240 190 216 155 140 144 145 146
216 256 57 87 141 189 209 213 208 162 222 207 236 235 246 179 225 254 246 174 216 252 201 249 250 250 259 243 271 287 292 256 253 250 262 268 290 48 192 124 128 146 143 144
347 304 283 279 226 223 247 211 177 204 222 202 251 284 200 193 193 255 179 239 179 250 148 257 249 50 43 20 336 268 235 272 245 285 290 251 140 251 116 108 122 137 133 128
221 241 230 206 199 248 244 349 16 327 290 263 276 293 124 145 199 232 228 241 203 127 227 241 308 13 9 357 318 284 227 232 204 235 156 288 227 81 111 143 142 134 138 141
235 229 255 242 243 239 271 328 335 327 283 280 293 312 213 197 216 223 220 182 180 212 292 332 358 358 340 331 340 307 238 185 177 101 107 257 119 176 150 121 135 143 141 144
250 246 248 251 289 282 2 289 293 352 346 305 292 289 220 215 251 257 275 174 156 57 338 338 331 341 340 339 340 334 252 223 157 121 92 17 42 102 104 120 131 136 138 142
253 242 263 253 253 3 358 360 330 17 323 293 332 288 254 235 258 29 315 354 44 30 5 360 320 344 351 336 322 308 266 165 149 142 149 168 141 129 120 133 137 140 145 146
237 239 243 265 311 282 336 334 356 344 295 251 241 283 320 319 345 335 9 38 360 5 33 342 351 3 16 3 359 13 100 122 124 131 143 152 149 145 135 130 137 137 147 161